Weather in Novokiyevka

Russia / Omsk Oblast     55°15′41″N   72°27′07″E
temp.,
°C
wind,
m/s
gust,
m/s
humid.,
%
clouds,
%
prec.,
mm/h
press.,
hPa
HPBL,
m
5 august, thu
thu500:00+19n2468100 0.0 1012112
03:00+18nnw247033 0.0 1012109
06:00+17nw2368100 0.0 101267
09:00+21nnw355726 0.0 1012375
12:00+26nw45408 0.0 10112339
15:00+27nw553255 0.0 10102701
18:00+27n563443 0.0 10102254
21:00+21ene2250100 0.0 101019
6 august, fri
fri600:00+20s2457100 0.0 1010101
03:00+17ssw336591 0.0 100929
06:00+16w2281100 0.0 101018
09:00+22ese0062100 0.0 1009283
12:00+24sw445190 0.0 1008947
15:00+20wnw3577100 0.7 1009151
18:00+19e34864 1.0 1008106
21:00+17ese379524 0.9 1007161
7 august, sat
sat700:00+16ese349656 1.8 100788
03:00+16se3794100 0.0 1006167
06:00+16ese489630 0.0 1005180
09:00+20se467959 0.5 1006407
12:00+25sse4557100 0.6 10051149
15:00+25sse345672 0.0 10051201
18:00+24w346948 2.6 1005751
21:00+19e33873 0.8 100632
8 august, sun
sun800:00+17s2293100 0.8 100616
03:00+17nw2394100 0.1 100539
06:00+16n3497100 0.1 100673
09:00+19n3386100 0.0 1006399
12:00+20ene2387100 1.4 1006207
15:00+19wnw349199 5.9 1006191
18:00+19wnw359380 10.5 1006162
21:00+19nw23906 3.0 100560
9 august, mon
mon900:00+17ene339251 3.3 100643
03:00+16ne3395100 0.0 100751
06:00+16ne37978 0.0 1007143
09:00+20ne57815 0.0 1008393
12:00+26ene67545 0.0 10091032
15:00+29ene444414 0.0 10091897
18:00+27nne675339 0.0 1011632
21:00+23n376483 0.0 1011153